CAPE
1761 1818 1788 1752 1910 2089 2069 2084 2233 2326 2456 2678 2832 2859 2776 2906 2864 3145 3366 3778 3869 4006 4385 4515 4558 4457 4525 4547 4635 4607 4550 4399 4369 4343 4201 4032 3611 3352 3369 3064 3024 2917 2385 1990 1746 1295 1142 948 862 754 675 678 714 712 784 829 763 671 581 622 629 537 755
1568 1584 1732 1777 1876 2018 2210 2332 2448 2420 2518 2649 2838 2917 2727 2876 3014 3101 3380 3676 3944 4010 4208 4427 4548 4588 4534 4566 4574 4595 4709 4558 4419 4290 4204 4126 3890 3700 3500 3303 3186 3086 2666 2139 1862 1417 1299 1175 918 831 677 756 801 887 843 939 860 768 549 595 662 618 577
1354 1461 1602 1809 1943 2004 2263 2365 2512 2576 2692 2566 2610 2715 2690 2918 3107 3116 3422 3646 3998 3966 4185 4526 4499 4511 4500 4592 4550 4732 4748 4742 4601 4534 4255 4105 4030 3812 3626 3581 3385 3084 2784 2380 2010 1680 1479 1297 1037 805 734 826 858 902 911 896 943 871 753 694 527 404 537
1208 1350 1512 1744 2077 2284 2348 2381 2552 2540 2546 2594 2627 2651 2795 3005 3134 3228 3364 3598 3851 3981 4112 4368 4505 4497 4471 4524 4716 4771 4773 4826 4663 4506 4250 3968 4147 3988 3790 3661 3471 3070 2722 2387 1980 1650 1280 920 935 726 741 894 842 793 826 732 758 856 802 655 529 505 693
1154 1270 1395 1624 1828 2214 2483 2438 2489 2672 2452 2435 2681 2872 2989 3083 3256 3227 3385 3543 3660 3865 3991 4191 4269 4382 4498 4566 4513 4634 4753 4810 4716 4528 4294 4084 4072 3967 3658 3373 3324 3010 2575 2353 1926 1436 1068 820 703 680 845 796 773 759 838 828 740 786 697 622 589 630 620
1330 1408 1404 1478 1706 2068 2395 2428 2422 2485 2454 2424 2646 2858 2890 2906 2922 2981 3223 3517 3638 3804 4024 4120 4356 4410 4462 4546 4408 4550 4656 4820 4774 4706 4446 4242 4031 3760 3442 3386 3193 2914 2436 2180 1616 1319 1092 688 534 646 746 757 562 494 582 739 670 707 705 644 599 568 590
1410 1658 1549 1535 1759 1916 2177 2312 2336 2339 2468 2468 2550 2846 2789 2688 2801 2827 2969 3323 3459 3752 3918 3930 4210 4344 4518 4435 4570 4604 4757 4736 4843 4720 4296 4055 3484 3307 3440 3393 3036 2726 2287 1881 1394 966 749 645 574 789 889 755 603 411 475 572 595 702 685 744 866 809 536
1584 1891 1854 1782 1772 1838 2003 2205 2244 2261 2454 2486 2485 2693 2667 2619 2713 2763 2898 3094 3318 3322 3575 3617 4019 4397 4472 4487 4517 4542 4780 4664 4766 4568 4012 3563 3393 3218 3258 3224 2904 2640 2142 1882 1413 836 724 532 715 880 886 644 582 600 502 629 765 672 641 671 689 521 455
1561 1904 1830 1688 1697 1546 1709 2159 2186 2206 2498 2654 2647 2856 2834 2764 2714 2874 2904 3037 3328 3314 3494 3448 3882 4282 4616 4638 4673 4607 4660 4695 4508 4112 3661 3290 3020 2856 3142 3090 2866 2332 1996 1726 1302 1032 592 696 824 1170 897 617 778 862 421 611 679 551 421 431 507 427 370
1557 2041 1984 1667 1604 1287 1478 2040 2328 2409 2605 2833 2910 3046 3085 2938 2915 2976 2979 2960 3204 3270 3362 3419 3554 4087 4583 4692 4552 4616 4868 4589 4184 3691 3265 2918 2869 2768 3037 2825 2740 2309 1964 1427 992 923 741 911 1045 1186 1124 668 411 325 288 566 652 591 520 539 512 460 517
1363 2036 2221 1852 1666 1516 1738 2124 2504 2760 2890 3219 3257 3222 3386 3270 3066 3034 3194 3048 2997 3260 3414 3573 3537 3882 4491 4592 4470 4508 4678 4318 3865 3410 3096 2680 2518 2959 2936 2704 2625 2353 1946 1428 928 900 1012 1151 1139 1155 818 344 409 312 521 691 671 737 506 549 601 546 579
2226 2350 2364 1926 1780 1733 1946 2524 2892 3063 3193 3522 3487 3446 3622 3509 3278 3145 3270 3308 3129 3265 3515 3602 3612 3785 4290 4515 4316 4450 4376 4154 3705 3240 3076 2922 2830 2892 2848 2671 2542 2141 1730 1248 872 894 898 1087 670 633 551 370 414 348 518 577 690 756 734 453 468 540 568
2224 2114 2348 1804 2073 2118 2463 3039 3333 3498 3757 3826 3487 3552 3708 3600 3470 3415 3628 3601 3338 3419 3650 3836 3807 3970 4421 4657 4314 4186 4180 4136 3498 3170 3032 2740 2866 2961 2765 2508 2074 1818 1526 858 667 687 328 320 465 519 397 391 523 670 704 761 764 798 796 730 676 778 972
1523 1926 1829 2049 2340 2572 2964 3359 3662 3879 4018 3817 3667 3648 3733 3672 3668 3630 3840 3858 3647 3517 3590 3863 4158 4352 4694 4770 4326 4146 4208 3922 3433 3210 2941 2746 2981 2915 2726 2442 2028 1902 1272 456 549 263 231 274 174 434 595 667 558 539 548 789 854 1411 1247 908 940 1076 1049
1772 1607 2058 2076 2588 2800 2967 3306 3793 3887 3776 3738 3641 3788 3815 3810 3716 3872 4030 4012 3867 3603 3777 4166 4475 4639 4793 4790 4429 4232 4267 4016 3478 3239 2876 2607 2794 2911 2642 2204 2059 1632 1180 848 538 423 283 231 520 678 522 614 548 394 682 876 811 800 1003 936 964 817 739
1749 1580 1768 2224 2730 2769 2990 3339 3758 3686 3688 3753 3585 3664 3697 3716 3983 3994 4129 4051 3957 3884 3981 4279 4632 4858 4900 4667 4385 4166 4071 3466 3464 3016 2662 2518 2584 2658 2466 2153 1914 1745 1658 1396 823 272 259 148 462 461 467 588 595 616 942 776 793 758 403 399 558 658 742
1816 1573 1654 2334 2859 2847 3027 3054 3462 3695 3675 3636 3578 3828 3808 4045 4028 4036 3924 4090 4192 4195 4137 4366 4857 5004 4774 4372 4015 3918 3882 3739 3594 3058 2614 2539 2478 2661 2436 2052 1930 1686 1599 960 815 747 580 536 437 183 200 70 302 849 881 807 687 277 63 9 2 308 524
1833 2093 1815 2226 2672 2778 2877 2889 3499 3686 3690 3713 3854 4084 4143 4241 4238 4188 3996 4156 4196 4220 4120 4264 4678 4738 4719 4258 4035 3605 3722 3453 3300 2878 2521 2491 2442 2435 2388 2058 1866 1738 1667 1106 923 984 816 486 488 254 136 74 315 796 820 796 506 198 42 0 0 23 539
1904 2210 2167 2463 2805 2924 2869 2935 3377 3626 3526 3730 3902 4146 4084 4333 4144 4297 4135 4179 4269 4287 4224 4199 4366 4745 4762 4467 4136 3967 3506 3082 2948 2798 2722 2596 2182 2421 2010 2138 2117 1922 1795 1371 1079 1040 950 700 450 503 556 756 908 830 708 769 417 189 19 0 0 0 142
1926 1951 2150 2339 2761 2864 2906 2963 3124 3327 3458 3827 3998 4068 3917 4038 4177 4248 4101 4141 4218 4280 4292 4455 4386 4569 4670 4553 4035 3695 3595 3092 2678 2696 2521 2346 2339 2342 1889 1990 2082 2049 1859 1598 1410 1337 1200 588 640 641 688 770 845 684 578 447 148 88 69 16 0 0 59
2218 2198 2326 2492 2884 2742 3109 2974 2916 3255 3424 3612 3737 3787 3771 3885 4001 4173 4103 4191 4310 4355 4365 4410 4332 4432 4606 4439 3924 3537 3229 2757 2706 2688 2410 2218 2208 2226 1955 1774 1930 1912 1822 1717 1654 1361 961 732 870 517 744 670 687 787 610 296 37 92 88 12 0 0 8
2066 1870 2096 2387 2798 2567 2823 2603 3043 3226 3522 3593 3544 3535 3587 3683 3638 3953 4144 4172 4244 4332 4355 4419 4258 4395 4474 4349 3854 3500 3326 3051 2737 2641 2492 2225 2153 2012 1867 1791 1810 1841 1816 1737 1664 1491 1195 764 699 443 502 521 494 298 572 72 0 70 104 51 0 0 202
1240 1659 1689 1892 2120 2393 2957 3037 3158 3302 3474 3303 3019 2846 2756 2997 3315 3945 4064 4033 3894 4264 4184 4262 4203 4344 4353 3932 3704 3234 3205 2889 2650 2560 2445 2292 2112 1924 1811 1893 1783 1779 1767 1763 1720 1614 1590 1288 828 576 482 315 240 584 377 50 192 0 0 0 0 0 360
1052 1271 1415 2095 2748 3112 2978 2789 2682 3202 2648 2686 2474 2546 2816 2986 3396 3837 4084 3789 3957 4133 4148 4129 4199 4106 4147 3958 3690 3164 2980 2784 2502 2457 2337 2144 1952 1897 1778 1685 1750 1772 1791 1723 1750 1662 1340 1052 530 492 453 228 83 440 528 217 102 136 132 103 0 14 680
1599 1890 2265 2210 2276 2274 2313 2581 2760 2882 3057 3005 2938 2953 3142 3321 3807 4036 4004 3787 3727 3725 3902 3956 4056 3988 4064 3936 3579 2993 2705 2702 2581 2423 2255 2148 1949 1678 1689 1753 1778 1768 1720 1702 1647 1668 1188 788 593 549 395 123 158 390 472 180 336 654 784 683 519 429 755
1578 1699 1939 2220 2398 2996 3700 3855 3513 3132 3243 3428 3802 3749 3765 3810 3892 3848 3508 3517 3655 3707 3832 3776 3944 3919 3992 3772 3338 2737 2636 2441 2392 2364 2205 2176 1982 1948 1866 1717 1716 1631 1642 1664 1574 1428 984 694 711 533 395 293 412 252 567 518 579 1402 849 832 734 558 786
2605 2424 2282 2369 3096 3627 3908 3567 3319 3183 3415 4144 3798 3342 3376 3383 3656 3949 4004 3985 3818 3807 3701 3764 3950 4034 3801 3635 3049 2410 2600 2411 2255 2136 2002 2038 1955 1649 1643 1648 1586 1538 1516 1501 1260 1040 847 838 610 325 203 277 193 343 632 882 1168 2221 1035 874 640 434 600
2118 2430 2790 3168 3188 2886 2915 3558 4257 4194 3948 3932 3644 3495 3679 3936 4159 4242 4221 3981 3823 3771 3599 3816 3929 3835 3711 3465 2920 2311 2404 2164 1862 1833 1890 1965 1625 1623 1565 1494 1386 1314 1228 1225 1091 988 865 661 368 233 279 276 765 1063 1226 1350 942 1281 1040 841 572 599 683
2942 2862 3028 3366 3539 3240 3194 3230 3224 3305 3494 3586 3749 3886 4073 4294 4357 4167 4009 4022 4007 3869 3880 3681 3711 3569 3450 3134 2656 2115 2305 2202 1930 1693 1630 1780 1622 1620 1527 1425 1334 1183 1042 918 779 680 651 508 668 684 966 1441 1602 2082 1826 1438 1212 715 811 577 568 546 473
2356 2525 2380 2320 2758 3010 3235 3498 3488 3441 3481 3609 3921 4098 4122 4276 3919 3939 4125 4313 3958 3644 3506 3551 3458 3070 2674 2547 2335 2342 2239 2104 1843 1520 1665 1646 1580 1512 1421 1361 1231 1084 940 768 689 648 734 800 779 832 1083 1536 1624 1341 1212 981 937 818 460 398 350 420 581
3054 2946 3006 3069 3105 3405 3619 3634 3573 3408 3385 3477 3681 3891 3944 3862 3915 4050 4317 3745 3322 3208 3264 3202 3082 2758 2578 2288 2080 2203 2120 1879 1691 1601 1674 1574 1448 1338 1307 1160 1054 1034 836 832 881 843 659 602 812 913 1308 1229 1301 1428 1095 811 866 581 475 484 588 676 690
3327 3338 3660 4010 4206 4038 3801 3741 3697 3558 3254 3144 3225 3371 3816 3925 4023 4238 3662 3136 3119 3081 3162 2860 2583 2396 2221 2090 1962 1914 1910 1851 1623 1640 1587 1519 1311 1226 1232 1022 1002 1075 1019 861 863 848 758 799 878 888 788 829 1240 1366 1032 919 800 592 628 768 821 681 708
2605 2964 3458 3946 3982 3782 3652 3366 3038 2927 2955 2894 2890 2924 3009 3296 3559 3415 2970 2809 2812 2800 2844 2532 2344 2107 1984 2110 1910 1819 1854 1814 1406 1420 1440 1367 1249 1192 1096 1015 882 1054 1038 1011 868 670 833 902 986 933 859 1667 1612 1318 1094 780 430 569 681 532 624 622 578
2492 2524 2764 3035 3095 3110 3199 3279 3251 2992 2793 2754 2658 2627 2613 2708 2778 2624 2437 2356 2410 2570 2615 2352 2202 1928 1899 1900 1719 1780 1670 1706 1515 1238 1298 1248 1194 1117 1066 1048 1074 991 900 877 918 857 997 982 1002 1030 959 1268 1253 941 1038 642 679 639 480 411 551 546 404
2466 2646 2682 2689 2898 3130 3037 2921 2830 2657 2502 2530 2683 2657 2704 2632 2509 2461 2529 2324 2340 2112 2317 2220 1919 1927 2084 1905 1780 1708 1654 1507 1397 1104 1185 1224 1162 1020 937 928 778 690 739 1077 1204 1066 1002 1074 1006 1030 956 1053 1038 883 784 610 656 820 658 969 312 1346 522
2434 2401 2344 2440 2466 2661 2738 2756 2666 2524 2562 2678 2872 2800 2744 2610 2431 2296 2159 2193 2146 2202 2107 1895 1719 1759 1737 1580 1495 1273 1262 1342 1367 1386 1158 1257 1241 1063 872 728 600 474 603 665 778 864 1020 930 1233 936 1169 1110 881 670 706 732 836 499 558 316 208 62 0
2052 2066 2172 2311 2346 2384 2594 2742 2658 2550 2589 2668 2774 2739 2610 2317 2102 2082 1776 1883 1912 1846 1850 1616 1591 1350 1408 1322 1151 1062 1089 1093 1185 1453 1181 1248 1322 1140 904 690 537 503 502 628 690 649 608 516 334 327 800 1226 445 416 498 452 491 524 367 81 0 0 0
1762 1772 1760 2037 2530 2690 2660 2591 2534 2535 2518 2511 2588 2409 2408 2046 2023 2026 1706 1762 1673 1605 1677 1612 1571 1406 1296 1117 1136 1165 1183 1223 1328 1177 1070 1268 1259 1091 819 654 589 534 478 509 456 353 337 394 430 538 530 577 554 544 530 514 467 88 0 0 0 0 0
Wind_Speed
17 17 17 15 11 9 10 13 16 17 18 17 16 17 17 17 17 17 17 18 19 18 19 20 21 20 20 19 19 18 17 16 16 16 15 15 14 14 16 17 19 22 21 23 24 24 25 25 25 25 25 25 26 27 26 26 25 25 24 24 23 22 22
15 17 19 17 13 11 13 15 17 16 16 15 15 18 17 19 18 18 18 19 20 21 21 22 22 20 19 18 18 17 16 16 16 15 15 15 16 17 19 19 22 24 25 24 25 26 28 28 28 27 26 26 26 28 28 27 26 25 25 25 23 22 22
15 18 19 17 14 13 15 16 17 15 15 15 17 18 18 19 20 20 20 20 21 21 21 21 20 18 17 17 16 16 15 16 16 17 18 18 20 21 23 23 23 23 24 25 26 26 27 28 29 28 27 27 28 29 30 30 29 27 25 24 23 22 22
15 18 19 16 14 15 17 20 21 18 15 18 20 20 21 21 21 20 20 21 22 21 20 18 17 17 16 16 15 14 14 15 16 17 19 20 22 24 26 26 25 23 23 25 25 27 27 27 29 29 29 29 30 31 33 32 31 29 27 25 23 22 22
12 15 16 14 13 14 17 19 20 19 18 19 20 22 23 22 22 20 19 19 20 21 20 18 16 15 14 14 13 13 15 16 17 18 19 21 23 25 27 27 27 26 25 27 28 29 30 31 30 30 30 31 31 33 36 36 32 30 28 27 24 23 23
9 11 13 14 13 14 16 18 21 22 21 21 21 22 22 23 22 21 19 18 17 17 17 17 16 16 15 16 15 15 16 16 17 19 21 23 23 24 27 27 28 29 30 31 31 32 35 35 35 34 34 35 35 36 37 36 33 31 30 28 25 23 23
6 7 10 11 12 14 15 16 18 20 20 20 21 22 23 23 22 21 19 18 17 18 17 17 17 17 16 17 16 16 17 17 18 21 22 23 22 22 26 28 30 31 32 34 34 35 36 36 36 37 37 37 38 38 37 35 32 31 30 29 26 25 23
6 6 7 8 10 13 14 14 16 19 20 20 22 23 24 22 21 21 19 17 17 16 16 17 17 16 16 16 15 16 17 18 20 22 22 23 23 23 26 30 32 34 36 38 39 40 41 39 39 39 39 39 40 40 40 37 33 29 29 29 27 26 26
6 6 8 8 9 12 15 15 17 20 23 23 24 24 24 22 22 21 20 19 17 16 16 16 16 16 16 15 15 17 18 19 22 24 26 26 25 26 29 34 37 39 41 42 43 44 44 44 43 43 42 41 42 42 42 39 33 29 28 29 28 27 26
10 10 10 11 11 13 17 19 20 22 24 24 25 25 26 24 22 21 20 19 16 15 15 14 14 15 16 16 18 20 21 23 25 27 28 28 28 29 33 36 39 41 43 44 44 45 45 44 46 47 46 44 44 43 40 37 32 30 31 31 30 28 26
15 15 15 14 14 15 19 22 23 23 26 27 27 27 27 26 23 20 19 17 15 14 15 15 15 16 18 19 21 22 23 25 26 27 29 31 31 35 37 38 39 41 43 44 44 46 46 44 44 46 48 45 43 40 37 36 32 32 32 32 30 28 27
19 18 17 16 18 18 20 21 22 24 27 29 29 29 29 27 24 20 18 17 16 16 16 16 17 18 20 20 21 23 25 25 26 27 30 34 34 36 37 37 39 42 43 45 46 45 45 43 41 42 46 44 40 36 34 34 31 31 32 30 28 28 27
22 20 18 17 20 22 23 22 22 24 28 30 30 30 30 29 25 21 19 19 18 17 17 18 18 19 20 21 22 22 24 25 25 25 28 32 33 35 38 39 41 42 44 45 45 43 42 41 40 40 43 43 37 32 31 32 30 29 31 29 27 27 26
23 21 19 20 22 23 23 22 23 25 28 30 31 31 30 28 26 23 21 20 19 18 18 18 19 19 19 19 20 22 23 24 25 26 29 32 33 36 38 39 39 39 41 43 43 43 42 41 40 39 39 39 37 33 33 34 32 30 31 30 30 29 26
18 18 19 20 21 23 23 22 22 24 26 29 30 31 30 28 25 23 22 20 19 18 19 19 20 20 20 20 21 22 23 26 28 29 31 32 34 36 39 41 41 41 41 42 41 40 43 42 41 41 39 37 37 38 38 36 31 28 30 31 29 27 22
14 16 17 19 22 23 23 20 20 22 25 28 29 30 29 26 25 24 23 21 20 19 18 19 20 22 23 24 25 25 27 30 32 33 32 33 37 39 41 43 44 44 42 42 41 41 41 42 41 41 41 40 39 39 37 33 29 28 32 30 28 25 21
14 15 15 18 22 22 22 19 19 22 24 25 27 27 26 25 25 23 22 21 20 19 19 21 23 24 26 27 27 29 31 33 35 35 33 34 38 41 43 45 44 43 42 41 39 39 40 41 41 39 40 nan 39 37 33 29 27 31 nan nan nan 26 21
13 12 13 16 20 21 21 20 20 23 24 25 26 28 27 27 25 24 21 20 20 20 22 23 25 26 27 28 30 31 34 36 38 36 34 36 39 42 44 46 45 42 43 43 41 36 37 39 39 37 38 nan 37 32 28 26 29 35 nan nan nan nan 22
15 14 14 17 20 20 19 20 21 23 25 26 27 28 29 29 28 26 23 22 22 24 25 26 27 27 29 30 33 34 35 39 40 37 36 38 40 42 44 46 45 43 44 44 41 37 37 37 36 35 35 36 34 30 28 27 35 38 nan nan nan nan 25
20 18 18 19 20 20 20 21 22 25 27 28 28 30 31 31 31 29 28 27 28 28 28 28 28 29 30 32 34 35 38 40 39 39 40 41 42 43 45 45 44 43 43 42 41 39 38 35 34 33 33 34 32 29 29 29 37 nan nan nan nan nan nan
23 20 20 21 21 21 22 22 24 29 32 33 34 34 34 33 33 34 33 32 32 32 33 32 31 32 33 34 37 39 40 40 39 41 43 43 43 44 45 45 44 43 42 43 42 41 39 39 35 32 34 33 30 29 30 31 nan nan nan nan nan nan nan
24 22 21 21 22 22 23 23 27 32 37 39 41 39 36 35 35 36 35 34 35 36 37 37 36 36 36 37 40 41 41 41 42 43 45 45 45 46 46 46 47 45 42 41 41 41 41 39 34 31 33 32 29 28 30 nan nan nan 33 nan nan nan 30
27 26 23 22 22 24 27 29 32 37 41 42 41 40 37 36 37 38 38 36 35 38 39 40 40 39 39 39 40 42 44 44 44 45 46 45 46 47 47 48 49 45 42 42 42 42 42 39 34 32 33 32 29 28 30 nan 38 nan nan nan nan nan 28
31 30 29 29 31 32 32 34 36 42 44 44 42 42 41 40 40 40 39 38 38 40 42 41 42 41 41 41 43 44 46 48 47 47 48 47 47 48 48 49 49 45 42 41 41 40 39 36 33 32 32 31 nan 29 30 29 32 31 25 27 nan nan 29
34 33 33 32 31 32 34 37 42 46 48 48 47 46 45 44 44 43 41 39 40 42 43 43 43 42 42 43 44 46 48 50 49 48 48 48 49 49 49 50 48 43 39 38 37 37 36 34 33 33 32 31 29 32 30 27 28 30 29 33 37 34 29
35 34 34 36 37 39 41 45 49 50 51 50 50 49 49 47 45 44 42 42 43 45 45 45 45 43 43 44 46 47 50 50 50 49 49 49 51 50 48 48 45 41 39 38 37 36 33 32 32 34 33 32 30 30 29 27 24 33 37 40 40 35 27
39 37 38 38 41 42 44 46 48 50 51 51 50 50 49 48 47 46 44 45 46 48 46 46 46 46 46 48 48 50 52 52 51 50 49 50 52 49 45 44 42 40 38 38 37 34 32 32 32 33 32 30 28 27 30 30 27 38 41 41 36 30 23
41 42 44 46 44 43 46 49 52 53 54 52 51 51 50 49 49 47 46 47 50 50 49 49 49 50 50 50 51 52 53 53 53 51 49 52 52 48 41 39 41 39 37 36 36 35 33 33 33 32 31 29 28 30 32 37 36 30 38 36 33 29 28
48 49 49 49 50 51 51 51 51 51 51 51 52 51 50 50 50 47 46 49 53 52 52 53 53 53 52 52 52 53 54 56 57 53 50 51 50 43 39 40 41 40 38 36 34 34 35 36 35 34 33 32 32 35 36 35 33 30 29 34 32 31 30
51 52 52 53 54 53 53 52 51 51 51 51 51 51 51 51 50 47 49 53 53 54 55 55 54 53 52 52 53 53 54 56 57 52 47 46 44 39 39 42 42 41 40 38 35 35 36 36 35 34 33 33 35 36 36 35 29 36 35 35 31 30 31
51 53 54 54 54 53 53 53 53 53 55 54 53 52 50 48 48 49 52 53 52 54 54 55 55 54 54 53 53 53 54 55 53 47 43 42 41 39 40 42 42 41 41 38 36 35 36 37 36 35 35 36 38 36 35 33 32 38 43 40 31 30 33
55 55 55 54 53 53 55 55 56 56 58 58 56 52 47 44 46 50 50 50 50 52 54 55 55 54 54 54 53 52 52 51 46 41 39 38 39 39 40 41 42 42 41 38 36 36 37 38 37 37 37 37 37 37 36 35 36 41 41 35 30 31 37
57 56 55 55 53 52 53 54 53 54 55 56 53 48 44 44 46 47 47 47 48 49 49 50 51 50 50 50 50 48 46 43 40 38 37 38 40 40 40 41 40 41 40 39 38 37 37 39 39 39 39 38 37 36 35 34 36 36 33 29 32 38 43
53 54 55 56 56 55 54 51 51 54 58 60 58 53 47 45 44 44 45 45 44 45 44 45 46 46 45 45 44 43 41 38 39 38 38 40 40 40 40 40 40 40 41 41 41 39 39 41 41 40 39 36 36 34 31 33 35 32 29 31 37 42 42
51 52 53 55 55 55 54 54 55 57 59 61 59 53 46 43 43 45 46 45 44 44 44 45 45 43 43 42 41 40 40 38 39 37 38 40 41 43 44 41 39 39 44 47 42 39 38 39 41 39 37 37 37 35 34 34 32 26 30 36 45 42 43
52 54 55 54 54 55 56 57 56 53 51 49 48 45 42 42 46 47 47 45 45 45 45 45 44 42 42 41 40 39 40 38 39 39 38 40 45 45 48 53 52 47 44 47 45 45 43 39 38 39 43 43 39 38 36 32 29 40 50 51 52 nan nan
54 54 54 55 55 55 55 55 54 52 49 46 44 44 44 47 49 48 47 45 45 45 46 45 43 41 41 41 40 40 40 40 38 40 39 42 46 46 48 49 49 49 47 44 39 34 34 40 44 46 46 43 44 43 47 48 50 55 59 nan nan nan nan
55 54 54 55 55 54 54 53 52 51 49 47 47 47 48 49 49 47 46 46 45 45 45 44 44 42 41 42 42 44 41 40 42 44 46 45 46 49 51 51 47 41 42 44 41 37 34 37 39 42 45 46 49 45 43 47 55 nan nan nan nan nan nan
Wind_Direction
300 312 312 303 294 306 328 332 330 328 330 328 325 325 322 315 315 310 309 311 315 313 311 311 312 311 316 313 318 319 317 312 311 315 318 322 326 327 327 327 330 325 327 325 325 325 321 320 318 317 314 312 313 315 316 316 314 310 309 307 306 300 297
311 331 331 321 318 322 330 328 328 330 333 333 330 332 328 327 320 317 314 313 315 316 312 311 311 311 312 312 312 320 317 315 313 309 312 314 318 320 323 331 328 325 326 326 325 323 320 320 319 317 316 313 312 311 312 313 313 309 307 307 307 304 300
320 336 338 331 328 327 331 328 331 334 335 332 334 332 332 328 324 325 319 317 320 321 318 317 316 312 306 308 313 317 316 312 313 314 317 315 321 324 325 329 326 324 326 325 323 318 316 317 317 315 316 315 313 309 307 307 308 306 304 303 304 304 302
314 329 335 333 325 322 331 339 340 338 334 334 333 334 332 331 328 325 323 322 324 323 326 322 317 314 310 310 313 312 313 312 313 315 318 318 322 325 325 324 320 322 326 325 319 314 312 313 314 314 315 314 313 311 308 305 303 303 302 301 299 299 299
309 316 318 323 323 312 322 338 342 335 332 332 330 328 329 330 330 328 327 326 327 328 329 326 315 314 305 305 296 297 305 313 315 317 317 321 324 324 324 324 319 319 320 315 314 314 314 314 315 313 310 310 311 310 309 306 301 298 300 301 297 295 296
291 298 307 317 321 322 326 335 339 334 328 328 329 326 326 332 333 337 333 327 326 322 318 317 315 309 306 304 301 299 304 314 319 321 321 322 327 326 322 320 315 315 314 313 315 316 315 314 315 313 311 309 308 307 308 306 300 298 301 300 297 294 293
258 279 289 303 313 317 323 325 325 324 321 320 322 322 327 332 336 337 332 328 322 315 317 319 315 310 305 303 308 312 319 325 326 327 323 323 328 329 321 317 316 316 315 313 316 318 316 314 314 312 310 309 308 308 307 305 298 294 296 298 297 294 292
249 250 266 289 295 291 295 302 304 305 306 309 316 324 330 330 328 331 332 320 314 314 312 315 311 307 307 308 311 323 326 330 324 321 320 320 324 330 325 320 320 321 321 321 321 322 318 316 313 311 309 309 308 306 306 307 299 290 293 295 295 296 294
253 254 261 281 287 275 277 285 289 292 299 307 315 317 324 326 324 324 327 320 312 312 312 312 313 310 308 310 313 325 325 322 315 313 317 318 323 330 328 326 325 322 323 324 322 321 319 317 314 310 311 310 308 305 306 311 304 290 290 292 292 295 296
246 257 261 273 283 278 274 280 285 284 294 299 304 311 319 321 320 315 316 319 312 314 312 311 309 309 309 311 318 323 319 315 313 316 317 322 324 332 334 333 328 322 324 325 323 321 320 320 317 315 314 314 311 305 304 309 306 293 291 294 292 294 298
236 254 263 274 283 281 280 288 293 289 291 294 299 304 308 313 315 312 310 311 308 302 307 306 306 309 312 318 324 322 315 316 318 321 323 327 336 345 343 339 332 327 329 327 325 322 320 320 321 319 318 314 309 305 302 305 306 297 295 295 292 295 299
230 244 254 266 274 278 288 292 288 282 287 288 295 298 301 307 312 311 307 308 304 302 303 308 308 315 318 321 324 320 320 322 322 327 333 337 344 348 344 340 335 333 331 329 326 323 322 323 324 327 329 321 311 305 304 306 303 298 296 296 293 296 298
224 233 244 258 267 269 278 289 297 292 288 288 293 295 297 305 309 308 304 307 307 303 304 307 312 316 320 323 325 322 324 324 326 330 339 339 340 343 342 340 339 338 335 331 329 328 329 331 329 329 334 330 320 310 308 310 307 299 297 296 295 294 294
232 235 240 249 261 274 287 291 287 285 287 289 290 292 295 302 305 305 305 305 304 304 303 302 311 318 322 324 326 325 325 327 326 329 334 338 337 340 340 337 337 337 333 332 333 332 330 331 330 328 329 329 325 316 309 311 308 299 297 298 298 297 294
234 243 250 259 265 271 277 286 288 288 290 290 291 294 299 301 302 300 299 298 299 302 306 306 312 317 319 321 324 328 326 327 323 326 330 336 336 335 333 332 333 333 332 333 333 328 326 329 330 327 324 323 324 318 311 309 307 298 295 296 295 294 294
230 243 258 267 269 270 272 280 286 291 290 289 294 297 300 299 298 299 299 299 300 304 307 310 316 318 318 320 320 323 328 333 324 325 330 335 337 334 332 331 330 330 332 332 329 325 324 328 330 327 322 320 320 318 312 309 302 297 298 292 289 290 284
225 239 258 266 263 263 266 275 285 289 290 294 299 302 300 295 294 295 297 293 295 302 309 315 318 320 321 322 322 324 325 324 322 320 330 336 340 332 331 331 329 330 330 326 323 323 321 323 326 327 324 nan 319 317 311 303 298 302 nan nan nan 290 281
222 238 251 260 259 259 265 278 290 297 299 300 302 302 299 296 296 297 297 291 292 297 304 311 316 321 324 325 326 329 326 322 318 323 332 335 338 336 331 329 328 328 327 328 328 321 317 320 321 321 319 nan 320 313 304 303 307 308 nan nan nan nan 288
211 219 227 242 253 261 271 284 292 294 292 293 298 299 300 298 298 300 299 295 294 294 301 310 316 319 322 325 326 325 327 323 323 328 328 331 335 334 333 329 328 327 326 328 326 319 317 318 317 316 315 316 314 304 297 301 304 307 nan nan nan nan 300
211 211 218 227 240 250 261 267 272 279 284 285 291 294 294 296 297 295 295 295 297 301 302 308 314 318 320 321 322 324 323 322 325 326 325 328 329 328 332 329 328 326 323 322 321 319 314 311 311 310 311 311 307 301 297 302 302 nan nan nan nan nan nan
216 218 220 227 240 252 260 268 271 275 280 284 286 285 286 288 289 290 294 298 300 299 301 304 309 313 317 319 322 324 324 322 322 321 322 324 324 323 328 332 327 324 322 320 319 318 312 302 301 306 306 306 308 303 299 298 nan nan nan nan nan nan nan
218 223 224 228 243 252 261 270 272 273 275 275 278 279 280 283 288 291 295 298 298 297 299 301 306 309 312 317 321 324 323 319 318 320 321 323 321 322 328 330 330 322 317 315 313 309 301 302 309 312 309 308 308 303 301 nan nan nan 302 nan nan nan 301
219 227 227 230 241 252 261 265 262 261 264 268 273 276 278 281 285 289 293 296 294 293 296 300 303 306 309 312 316 319 320 317 315 317 318 318 319 322 325 326 325 316 306 306 308 306 308 311 316 315 310 311 308 305 301 nan 295 nan nan nan nan nan 306
222 229 232 236 242 250 258 262 261 259 263 269 273 275 275 280 283 287 290 291 288 288 292 296 299 302 306 308 311 315 317 317 316 316 317 317 319 320 321 322 320 309 300 305 305 306 305 310 315 314 311 313 nan 310 303 295 291 299 309 313 nan nan 309
228 233 237 240 245 253 258 260 262 263 265 270 273 274 276 278 281 283 286 286 285 286 289 292 296 300 304 306 307 311 314 314 313 314 315 316 315 315 318 318 316 306 301 303 303 303 307 313 313 312 314 319 321 307 300 289 284 295 303 305 308 309 305
231 233 238 243 246 249 252 256 259 262 265 269 271 274 276 277 279 282 284 283 283 284 287 290 294 298 300 303 305 308 309 309 311 311 312 312 312 311 312 311 306 302 301 302 303 306 311 314 315 316 318 322 321 307 295 282 275 285 297 302 305 312 305
231 234 241 247 250 253 252 255 259 263 265 265 269 273 275 277 279 281 280 279 280 282 284 287 290 295 298 300 303 306 306 305 307 309 310 311 311 310 308 304 301 298 300 301 304 309 312 314 314 316 320 321 314 298 282 274 272 281 296 301 305 309 308
240 240 242 246 251 256 259 259 261 263 263 266 269 271 273 275 276 277 277 277 277 279 280 284 289 293 296 299 301 301 301 302 304 305 305 308 309 304 305 302 299 299 303 304 307 313 315 314 314 314 317 312 301 289 280 274 274 283 292 300 302 306 312
243 245 247 250 249 251 256 260 264 266 267 267 268 268 270 273 273 272 272 273 276 278 282 287 290 293 294 295 297 297 297 298 302 303 302 304 307 308 306 302 302 302 304 305 307 312 314 314 312 312 307 300 291 282 278 276 275 276 287 297 298 300 308
244 245 248 250 251 254 256 259 261 263 263 263 264 265 267 268 268 269 271 275 278 282 285 288 290 290 290 291 293 294 293 294 299 302 301 304 306 307 307 304 304 303 303 304 307 309 310 308 309 307 306 300 293 286 282 280 277 281 280 288 292 298 303
242 244 246 249 252 254 257 259 259 258 257 256 257 257 259 262 268 274 276 278 281 284 286 287 288 287 286 287 290 291 291 293 297 299 300 301 306 308 308 305 302 302 301 303 306 308 308 307 305 305 308 305 297 290 286 282 285 285 282 280 283 291 299
235 237 240 244 247 250 254 255 255 255 254 253 252 250 251 259 269 274 277 279 281 283 285 287 288 287 286 287 288 290 291 294 296 296 297 301 304 306 304 302 301 300 300 304 305 307 305 303 304 308 311 306 298 290 285 281 282 286 282 278 286 300 303
234 234 237 240 241 244 246 249 250 251 252 252 252 251 254 261 265 267 272 276 279 281 284 287 287 286 285 287 289 291 293 295 294 294 294 297 299 301 302 301 301 299 300 303 303 301 300 299 304 308 309 301 295 290 287 288 289 288 284 288 302 306 301
236 237 237 237 237 237 241 245 247 248 249 247 247 250 256 262 265 269 273 276 278 281 285 286 285 285 286 288 289 290 293 293 291 292 293 295 297 300 302 302 301 302 302 302 296 295 296 299 304 307 305 298 292 284 282 290 294 288 285 297 306 303 298
235 237 239 240 240 244 250 253 254 255 256 254 253 256 260 262 266 272 274 273 274 280 283 282 283 284 285 285 286 288 288 290 291 293 293 295 292 280 277 279 284 290 299 283 275 278 291 300 302 303 301 296 292 290 289 290 291 290 281 290 289 294 305
237 240 242 245 249 252 255 255 256 260 262 260 259 261 263 265 269 273 274 273 275 278 279 281 283 284 283 284 285 286 288 289 290 292 295 294 287 288 285 278 278 278 281 277 265 263 268 283 298 298 297 293 290 285 287 287 287 286 289 292 291 nan nan
240 243 245 248 252 253 253 254 256 259 261 261 261 262 263 266 268 267 267 270 274 277 279 281 281 282 282 283 285 286 287 289 290 292 294 290 288 287 286 286 281 274 269 265 259 257 276 294 291 287 292 296 288 278 272 275 282 288 291 nan nan nan nan
242 244 246 247 249 251 253 254 257 259 260 261 262 264 266 267 267 266 268 271 272 274 277 280 281 281 281 283 284 283 285 287 287 287 285 285 286 287 289 289 290 286 273 263 252 254 274 286 284 280 278 281 285 284 276 274 282 nan nan nan nan nan nan